Regional Weather Roundup
Issued by NWS Albany, NY

Current Version | Previous Version | Text Only | Print | Product List | Glossary On
Versions: 1 2 3 4 5 6 7 8 9 10 11 12 13 14 15 16 17 18 19 20 21 22 23 24 25 26 27 28 29 30 31 32 33 34 35 36 37 38 39 40 41 42 43 44 45 46 47 48 49 50
000
ASUS41 KALY 110010
RWRALY

NEW YORK STATE HOURLY WEATHER ROUNDUP
NATIONAL WEATHER SERVICE ALBANY NY
700 PM EST WED FEB 10 2016

NOTE: "FAIR" INDICATES FEW OR NO CLOUDS BELOW 12,000 FEET WITH NO
SIGNIFICANT WEATHER AND/OR NO OBSTRUCTIONS TO VISIBILITY.

NYZ032-033-038>043-046>054-057>066-NYZ062>081-110100-
EAST


CITY           SKY/WX    TMP DP  RH WIND       PRES   REMARKS
ALBANY         MOCLDY    31  22  69 NW9G20    29.66R WCI  23
GLENS FALLS    CLOUDY    31  18  58 SW5       29.63R WCI  26
POUGHKEEPSIE   PTCLDY    34  19  54 W8        29.68R WCI  27
NEWBURGH       MOCLDY    32  21  64 W12       29.68R WCI  23
MONTGOMERY     CLOUDY    33  22  63 W8        29.67R WCI  26
WHITE PLAINS   MOCLDY    34  18  52 W6        29.67R WCI  29
ISLIP          MOCLDY    36  22  56 W9        29.68R WCI  29
NEW YORK CITY  MOCLDY    36  17  46 W20G26    29.71R WCI  25
CENTRAL PARK   MOCLDY    34  16  47 W9G17     29.74R WCI  27
$$

NYZ005>009-017-018-044>046-055-056-110100-
CENTRAL


CITY           SKY/WX    TMP DP  RH WIND       PRES   REMARKS
FULTON         LGT SNOW  27  23  85 W12       29.69S VSB 3/4 WCI  17
SYRACUSE       FLURRIES  25  19  78 W18       29.69R WCI  11
ROME           CLOUDY    25  21  85 W10       29.69S WCI  15
ELMIRA         FLURRIES  25  19  78 W9        29.72R WCI  15
BINGHAMTON     LGT SNOW  22  18  85 NW12      29.64R FOG     WCI  10
MONTICELLO     CLOUDY    27  18  69 W8        29.65R WCI  18
$$

NYZ026>034-041>043-110100-
NORTH


CITY           SKY/WX    TMP DP  RH WIND       PRES   REMARKS
WATERTOWN      CLOUDY    24  20  84 CALM      29.67S FOG
FORT DRUM      NOT AVBL
MASSENA        LGT SNOW  23  17  78 W10       29.67S WCI  12
SARANAC LAKE   LGT SNOW  18  14  84 VRB6      29.54R FOG     WCI  10
PLATTSBURGH    CLOUDY    23  19  85 CALM      29.63R
$$

NYZ001>004-010>016-019>021-110100-
WEST


CITY           SKY/WX    TMP DP  RH WIND       PRES   REMARKS
NIAGARA FALLS  LGT SNOW  20  12  71 W17       29.77R WCI   5
BUFFALO        FLURRIES  18  10  71 W16G24    29.77R WCI   3
DUNKIRK        MOCLDY    18   8  65 W13G25    29.83R WCI   5
JAMESTOWN      CLOUDY    14   9  79 W8        29.74R WCI   3
WELLSVILLE     CLOUDY    16   5  62 W22G35    29.70R WCI  -2
ROCHESTER      CLOUDY    24  14  65 W17G26    29.73R WCI  11
PENN YAN       CLOUDY    24  12  60 W21G30    29.71R WCI   9
$$

             KEY
       WCI = WIND CHILL INDEX
       VSB = VISIBILITY
       HX  = HEAT INDEX
$$



USA.gov is the U.S. government's official web portal to all federal, state and local government web resources and services.